Regional Weather Roundup
Issued by NWS Wakefield, VA

Home | Current Version | Previous Version | Graphics & Text | Print | Product List | Glossary On
Versions: 1 2 3 4 5 6 7 8 9 10 11 12 13 14 15 16 17 18 19 20 21 22 23 24 25 26 27 28 29 30 31 32 33 34 35 36 37 38 39 40 41 42 43 44 45 46 47 48 49 50
000
ASUS41 KAKQ 281415
RWRAKQ

REGIONAL WEATHER ROUNDUP
NATIONAL WEATHER SERVICE WAKEFIELD VA
1000 AM EDT FRI AUG 28 2015

Note: "fair" indicates few or no clouds below 12,000 feet with no
significant weather and/or obstructions to visibility. * = Denotes
station may not report precipitation (e.g., rain,snow,etc.),
thunder or fog.

VAZ042-051-052>054-056-281500-
NORTHERN VIRGINIA

CITY           SKY/WX    TMP DP  RH WIND       PRES   REMARKS
WASH NATIONAL  MOSUNNY   75  58  55 CALM      30.22R
DULLES         MOSUNNY   73  58  59 CALM      30.22R
FORT BELVOIR   SUNNY     74  60  60 VRB1      30.22R
QUANTICO       SUNNY     72  61  68 N7        30.22R
FREDERICKSBRG* SUNNY     75  60  58 CALM      30.21S
STAFFORD*      SUNNY     74  59  59 CALM      30.26R
WARRENTON      MOSUNNY   74  62  65 CALM      30.22S
CULPEPER*      SUNNY     71  60  69 CALM      30.23S
MANASSAS*      MOSUNNY   72  61  68 CALM      30.23R
LEESBURG*      SUNNY     73  61  64 CALM      30.24R
WINCHESTER     MOSUNNY   70  55  60 CALM      30.23S
FRONT ROYAL*   FAIR      68  57  68 CALM      30.23S
LURAY*         FAIR      68  55  64 CALM      30.23F
$$

VAZ048-049-060>072-079>083-281500-
CENTRAL AND SOUTH CENTRAL VIRGINIA

CITY           SKY/WX    TMP DP  RH WIND       PRES   REMARKS
RICHMOND       MOSUNNY   76  61  59 E6        30.20S
CHESTERFIELD*  FAIR      75  55  50 E3        30.22S
PETERSBURG*    SUNNY     76  66  71 NE5       30.22R
HANOVER        SUNNY     74  62  66 N5        30.23R
TAPPAHANNOCK*  SUNNY     75  61  60 CALM      30.22R
QUINTON*       FAIR      73  64  73 NE3       30.21R
CHARLOTTSVILLE MOSUNNY   72  59  63 NE5       30.22S
GORDONSVILLE*  PTSUNNY   73  60  63 CALM      30.22R
ORANGE*        MOSUNNY   73  61  64 CALM      30.24R
LOUISA*        SUNNY     73  61  64 CALM      30.21S
BUMPASS*       FAIR      74  60  61 CALM      30.22R
FARMVILLE*     SUNNY     75  60  58 N3        30.21R
CREWE*         FAIR     N/A N/A N/A CALM      30.22R
FORT PICKETT*  FAIR      74  62  64 E5        30.22R
CHASE CITY*    FAIR      76  62  62 CALM      30.22R
CLARKSVILLE*   FAIR      73  61  64 NE3       30.22R
SOUTH HILL*    SUNNY     72  61  69 NE3       30.27R
LAWRENCEVILLE* FAIR      73  63  68 NE5       30.21R
EMPORIA*       SUNNY     73  63  68 NW3       30.22R
$$

VAZ088>098-281500-
SOUTHEAST VIRGINIA

CITY           SKY/WX    TMP DP  RH WIND       PRES   REMARKS
NORFOLK        SUNNY     78  60  53 N13       30.18R
VIRGINIA BEACH MOSUNNY   81  62  52 NE12      30.17R
NORFOLK NAVAL  MOSUNNY   80  59  48 N12       30.20R
WEST POINT*    SUNNY     79  60  52 N5        30.22R
SALUDA*        FAIR      75  62  64 NW5       30.19S
NEWPORT NEWS   SUNNY     78  61  55 NE9       30.19R
LANGLEY AFB    SUNNY     78  62  58 NE8       30.18R
FORT EUSTIS    SUNNY     78  59  51 NE7       30.17R
WILLIAMSBURG*  SUNNY     79  66  65 CALM      30.21R
HR EXEC AP*      N/A     81  63  54 N7        30.20R
FRANKLIN*      SUNNY     77  63  61 N8        30.19S
WAKEFIELD      SUNNY     77  61  57 NE6       30.20R
$$

VAZ020-022-025-037-045-281500-
WEST CENTRAL AND SOUTHWEST VIRGINIA

CITY           SKY/WX    TMP DP  RH WIND       PRES   REMARKS
STAUNTON*      SUNNY     71  58  62 CALM      30.26S
WAYNESBORO*    FAIR      70  58  65 CALM      30.25S
HOT SPRINGS VA CLOUDY    62  58  88 W7        30.31R
LYNCHBURG      SUNNY     72  60  66 CALM      30.25R
DANVILLE       SUNNY     74  62  66 CALM      30.22R
SOUTH BOSTON*  FAIR      72  61  66 CALM      30.22R
MARTINSVILLE   SUNNY     73  62  68 CALM      30.26R
ROANOKE        SUNNY     72  60  66 CALM      30.26R
BLACKSBURG     MOSUNNY   69  62  77 SW3       30.30R
DUBLIN*        CLOUDY    70  64  80 CALM      30.28R
MARION*        PTSUNNY   67  60  78 CALM      30.30R
HILLSVILLE*    SUNNY     66  60  78 S3        30.28R
RICHLANDS*     PTSUNNY   70  29  21 SE3       30.26R
WISE*          SUNNY     70  57  64 S6        30.27S
ABINGDON*      CLOUDY    72  59  65 SE3       30.25R
$$

MDZ021>025-VAZ099-100-281500-
SOUTHERN MARYLAND AND THE DELMARVA PENINSULA

CITY           SKY/WX    TMP DP  RH WIND       PRES   REMARKS
PATUXENT RIVER MOSUNNY   75  58  55 NE7       30.21R
BAY BRIDGE APT   N/A     73  55  53 E5        30.22R
LEONARDTOWN    SUNNY     73  59  60 CALM      30.23R
DOVER          SUNNY     73  61  65 VRB3      30.20R
GEORGETOWN     SUNNY     75  58  55 N7        30.21R
EASTON         SUNNY     73  61  64 NE7       30.25R
CAMBRIDGE      SUNNY     73  59  60 CALM      30.21R
SALISBURY      SUNNY     75  61  61 N8        30.20R
OCEAN CITY     SUNNY     76  58  53 NE10      30.19R
WALLOPS ISLAND MOSUNNY   77  60  55 N9        30.20R
ACCOMACK*      SUNNY     73  21  14 NE6       30.19R
$$

NCZ012>017-030>032-281500-
NORTH CENTRAL AND EASTERN NORTH CAROLINA

CITY           SKY/WX    TMP DP  RH WIND       PRES   REMARKS
ROANOKE RAPIDS FAIR      73  61  64 NE7       30.20R
RALEIGH        MOSUNNY   75  61  61 NE6       30.20R
ELIZABETH CITY MOSUNNY   79  65  62 N13       30.16R
AHOSKIE*       SUNNY     75  61  61 N9        30.19R
EDENTON*       MOSUNNY   75  65  69 NE8       30.17R
CURRITUCK*     MOSUNNY   78  60  52 NE9       30.17R
KILL DEVIL HLS MOSUNNY   80  63  55 NE8       30.14R
MANTEO         MOSUNNY   78  63  61 NE12      30.15R
CAPE HATTERAS  MOSUNNY   79  65  62 NE7       30.12R
TARBORO*       FAIR      78  63  60 NE7       30.19R
GOLDSBORO      MOSUNNY   74  64  71 NE8       30.16R
WASHINGTON     MOSUNNY   74  65  72 NE7       30.16S
GREENVILLE     MOSUNNY   75  64  69 NE9       30.18R
NEW BERN       MOSUNNY   77  65  66 NE10      30.15R
WILMINGTON     PTSUNNY   78  68  71 NE12      30.13R
$$

VAZ048-281500-
ELSEWHERE

CITY           SKY/WX    TMP DP  RH WIND       PRES   REMARKS
HARRISBURG PA  SUNNY     69  60  73 W3        30.21S
BALTIMORE      MOSUNNY   74  56  53 E6        30.21R
ANNAPOLIS      SUNNY     74  61  63 VRB3      30.21R
ANDREWS AFB    SUNNY     75  57  53 N5        30.21R
PHILADELPHIA   MOSUNNY   74  51  44 CALM      30.20R
HENDERSON NC   SUNNY     73  60  64 NE5       30.22R
GREENSBORO     MOSUNNY   73  61  65 NE6       30.22R
ROCKY MOUNT    SUNNY     79  60  52 NE12      30.18R
$$

VAZ100-281500-
MARINE

STATION/POSITION TIME  TEMP    WIND        PRES    WAVE   SWELL
                       AIR SEA DIR/SP/G            HT/PER HT/PER
                 (UTC) (F)     (DEG/KT/KT) (MB)    (FT/S) (FT/S)
BRANDYWINE LGT   1300   69 74   50/ 11/ 12 1022.4R
CAPE MAY NJ      1300   71 78   50/  4/  6 1021.7R
LEWES DE         1300   71 75   40/  8/ 10 1022.0R
15NM E FENWICK I 1350   73 78   10/ 10/ 12 1022.2R   3/11   2/11
OCEAN-CITY-INLET 1300   74 76   50/  5/  9 1020.9R
WACHAPREAGUE VA  1300   74 76  360/  4/  7 1021.7R
GOOSES REEF MD   1400   73 79   50/  4/  8 1024.1R
COVE POINT MD    1300   70      70/  7/  9 1023.1R
SOLOMONS ISLAND  1300      81                N/A
BISHOPS HEAD MD  1300   71 74   20/  5/  7 1021.3R
PINEY POINT MD   1300           50/  6/  8   N/A
POTOMAC MD       1400   75 79   40/  8/ 12 1021.7R   1
CAMBRIDGE MD     1300   70 80   50/  5/  6 1021.5R
LEWISETTA VA     1300   74 77   60/  5/  6 1022.0R
RAPPAHANNOCK LGT 1300           40/ 10/ 11 1022.3R
STINGRAY PT      1400   75 79   40/  8/ 12 1022.8R   1/ 3
YORK RVR RNG VA  1300   75      70/  9/ 11 1021.3R
YORKTOWN VA      1300   74 80   20/  6/  8 1021.6R
JAMESTOWN VA     1400   76 81   20/  6/ 12   N/A
DOMINION TERM VA 1300   75      20/  7/  9 1021.4R
KIPTOPEKE VA     1300      78   20/  8/ 12   N/A
CHES BAY BRIDGE  1300   74 79   20/  9/ 10 1020.8R
CAPE HENRY VA    1300   75      40/ 10/ 11   N/A
CHESAPEAKE LGHT  1300   75      40/ 13/ 15 1021.6R
WILLOUBY STN VA  1300   75      40/ 10/ 11 1022.4R
CAPE HENRY BUOY  1328      78                N/A     3/11   2/11
1ST LANDING BUOY 1400      78              1021.5R   2/ 3
CAPE CHARLES BUO 1326      78                N/A     3/10   3/10
OFFSHORE WE BUOY 1311      78                N/A     3/ 9   3/ 9
64NM E OF VA BCH 1350   77 79   40/ 14/ 16 1020.3R   4/ 9   3/ 9
DUCK PIER NC     1300   76 78   40/ 16/ 18 1019.8R
44100 DUCK FRF   1324      78                N/A     4/ 4   2/12
44056 DUCK FRF   1311      78                N/A     4/12   2/12
OREGON INLET NC  1300   77 75   40/ 12/ 17 1019.9R
HATTERAS NC      1300   78 78   30/ 11/ 16 1019.4R
DIAMOND SHLS NC  1350   79 82   40/ 17/ 21 1019.3R   5/ 5   2/ 9



USA.gov is the U.S. government's official web portal to all federal, state and local government web resources and services.